QPF
0.06 0.06 0.06 0.06 0.05 0.05 0.06 0.05 0.03 0.04 0.04 0.03 0.03 0.03 0.04 0.04 0.04 0.04 0.05 0.06 0.07 0.07 0.08 0.08 0.08 0.07 0.06 0.05 0.03 0.03 0.03 0.03 0.02 0.01 0.01 0.01 0.01 0.00 0.01 0.00 0.00 0.00 0.00
0.07 0.07 0.06 0.05 0.04 0.04 0.04 0.04 0.04 0.05 0.06 0.05 0.05 0.05 0.04 0.05 0.06 0.07 0.06 0.06 0.08 0.07 0.08 0.09 0.10 0.09 0.08 0.08 0.07 0.06 0.04 0.03 0.02 0.01 0.01 0.01 0.01 0.01 0.01 0.01 0.00 0.00 0.01
0.05 0.05 0.05 0.03 0.03 0.03 0.03 0.02 0.03 0.04 0.04 0.05 0.05 0.05 0.05 0.06 0.07 0.07 0.08 0.08 0.09 0.06 0.06 0.07 0.08 0.10 0.12 0.10 0.09 0.09 0.07 0.05 0.04 0.03 0.02 0.01 0.01 0.01 0.01 0.01 0.01 0.01 0.00
0.05 0.05 0.04 0.02 0.02 0.03 0.02 0.02 0.02 0.02 0.04 0.04 0.04 0.04 0.05 0.07 0.08 0.09 0.09 0.10 0.10 0.08 0.07 0.05 0.05 0.06 0.09 0.10 0.11 0.09 0.09 0.07 0.05 0.04 0.03 0.02 0.02 0.01 0.01 0.01 0.01 0.02 0.01
0.04 0.04 0.04 0.02 0.02 0.02 0.02 0.01 0.01 0.02 0.03 0.03 0.02 0.03 0.04 0.05 0.07 0.06 0.08 0.07 0.07 0.07 0.09 0.08 0.05 0.04 0.06 0.08 0.11 0.12 0.12 0.11 0.08 0.05 0.04 0.03 0.02 0.02 0.01 0.01 0.01 0.01 0.01
0.03 0.03 0.02 0.02 0.01 0.01 0.02 0.02 0.02 0.02 0.02 0.02 0.01 0.01 0.02 0.03 0.05 0.05 0.06 0.05 0.06 0.05 0.05 0.05 0.06 0.05 0.04 0.05 0.07 0.08 0.11 0.12 0.09 0.07 0.06 0.05 0.04 0.03 0.02 0.02 0.01 0.01 0.01
0.02 0.02 0.01 0.01 0.01 0.01 0.02 0.02 0.02 0.02 0.02 0.01 0.01 0.02 0.02 0.02 0.02 0.02 0.03 0.04 0.03 0.04 0.05 0.05 0.06 0.07 0.05 0.03 0.03 0.04 0.05 0.07 0.09 0.09 0.08 0.07 0.06 0.05 0.03 0.02 0.02 0.01 0.01
0.02 0.01 0.01 0.01 0.01 0.01 0.01 0.01 0.01 0.01 0.01 0.01 0.01 0.02 0.02 0.02 0.01 0.01 0.01 0.01 0.02 0.03 0.03 0.03 0.04 0.07 0.06 0.05 0.03 0.02 0.04 0.06 0.09 0.12 0.10 0.07 0.06 0.05 0.04 0.03 0.02 0.02 0.02
0.01 0.01 0.00 0.00 0.00 0.00 0.00 0.01 0.01 0.01 0.01 0.00 0.01 0.01 0.02 0.02 0.01 0.01 0.01 0.00 0.01 0.01 0.01 0.02 0.02 0.03 0.04 0.05 0.05 0.03 0.02 0.02 0.05 0.10 0.08 0.06 0.05 0.04 0.03 0.03 0.03 0.03 0.02
0.01 0.00 0.00 0.00 0.00 0.00 0.00 0.00 0.00 0.00 0.00 0.00 0.00 0.00 0.01 0.01 0.01 0.02 0.01 0.00 0.00 0.01 0.01 0.01 0.00 0.01 0.02 0.03 0.04 0.02 0.01 0.01 0.02 0.04 0.06 0.06 0.04 0.03 0.03 0.03 0.05 0.06 0.05
0.01 0.00 0.00 0.00 0.00 0.00 0.00 0.00 0.00 0.00 0.00 0.00 0.00 0.00 0.00 0.00 0.01 0.01 0.01 0.01 0.00 0.00 0.00 0.01 0.01 0.01 0.02 0.02 0.03 0.01 0.00 0.00 0.00 0.01 0.03 0.04 0.04 0.04 0.04 0.05 0.08 0.10 0.09
0.00 0.00 0.00 0.00 0.00 0.00 0.00 0.00 0.00 0.00 0.00 0.00 0.00 0.00 0.00 0.00 0.01 0.01 0.01 0.01 0.01 0.00 0.00 0.00 0.00 0.01 0.01 0.01 0.01 0.00 0.00 0.00 0.00 0.00 0.01 0.01 0.02 0.03 0.03 0.04 0.06 0.07 0.08
0.00 0.00 0.00 0.00 0.00 0.00 0.00 0.00 0.00 0.00 0.00 0.00 0.00 0.00 0.00 0.00 0.00 0.00 0.00 0.00 0.00 0.00 0.00 0.00 0.00 0.00 0.00 0.00 0.00 0.00 0.00 0.00 0.00 0.00 0.00 0.00 0.00 0.01 0.01 0.01 0.02 0.03 0.04
0.00 0.00 0.00 0.00 0.00 0.00 0.00 0.00 0.00 0.00 0.00 0.00 0.00 0.00 0.00 0.00 0.00 0.00 0.00 0.00 0.00 0.00 0.00 0.00 0.00 0.00 0.00 0.00 0.00 0.00 0.00 0.00 0.00 0.00 0.00 0.00 0.00 0.00 0.00 0.00 0.00 0.01 0.01
0.01 0.01 0.00 0.00 0.00 0.00 0.00 0.00 0.00 0.00 0.00 0.00 0.00 0.00 0.00 0.00 0.00 0.00 0.00 0.00 0.00 0.00 0.00 0.00 0.00 0.00 0.00 0.00 0.00 0.00 0.00 0.00 0.00 0.00 0.00 0.00 0.00 0.00 0.00 0.00 0.00 0.00 0.00
0.01 0.01 0.01 0.00 0.00 0.00 0.00 0.00 0.00 0.00 0.00 0.00 0.00 0.00 0.00 0.00 0.00 0.00 0.00 0.00 0.00 0.00 0.00 0.00 0.00 0.00 0.00 0.00 0.00 0.00 0.00 0.00 0.00 0.00 0.00 0.00 0.00 0.00 0.00 0.00 0.00 0.00 0.00
0.02 0.01 0.01 0.01 0.01 0.01 0.01 0.01 0.01 0.00 0.00 0.00 0.00 0.00 0.00 0.00 0.00 0.00 0.00 0.00 0.00 0.00 0.00 0.00 0.00 0.00 0.00 0.00 0.00 0.00 0.00 0.00 0.00 0.00 0.00 0.00 0.00 0.00 0.00 0.00 0.00 0.00 0.00
0.04 0.03 0.03 0.03 0.02 0.01 0.02 0.02 0.01 0.01 0.01 0.01 0.00 0.00 0.00 0.00 0.01 0.00 0.00 0.00 0.00 0.00 0.00 0.00 0.01 0.01 0.01 0.00 0.00 0.00 0.00 0.00 0.00 0.00 0.00 0.00 0.00 0.00 0.00 0.00 0.00 0.00 0.00
0.05 0.05 0.04 0.04 0.04 0.03 0.03 0.03 0.02 0.02 0.02 0.01 0.02 0.01 0.01 0.01 0.01 0.02 0.01 0.01 0.01 0.01 0.01 0.01 0.01 0.01 0.01 0.01 0.01 0.00 0.00 0.00 0.00 0.00 0.00 0.00 0.00 0.00 0.00 0.00 0.00 0.00 0.00
0.05 0.05 0.04 0.04 0.04 0.03 0.03 0.03 0.04 0.03 0.02 0.02 0.01 0.01 0.02 0.02 0.02 0.03 0.03 0.03 0.03 0.03 0.03 0.02 0.02 0.02 0.02 0.02 0.01 0.01 0.01 0.01 0.01 0.00 0.00 0.00 0.00 0.00 0.00 0.00 0.00 0.00 0.00
0.04 0.04 0.04 0.03 0.03 0.03 0.03 0.04 0.05 0.05 0.05 0.04 0.03 0.03 0.02 0.01 0.01 0.02 0.02 0.03 0.03 0.04 0.04 0.03 0.03 0.03 0.03 0.04 0.03 0.03 0.02 0.01 0.02 0.01 0.01 0.00 0.00 0.00 0.00 0.00 0.00 0.00 0.00
0.06 0.05 0.05 0.04 0.03 0.03 0.04 0.06 0.06 0.06 0.06 0.05 0.05 0.04 0.04 0.03 0.03 0.03 0.02 0.03 0.03 0.03 0.04 0.04 0.04 0.04 0.04 0.05 0.04 0.04 0.03 0.03 0.02 0.02 0.02 0.01 0.01 0.00 0.00 0.00 0.00 0.00 0.00
0.08 0.08 0.07 0.06 0.06 0.05 0.04 0.04 0.04 0.06 0.05 0.05 0.05 0.05 0.05 0.04 0.04 0.04 0.04 0.03 0.03 0.02 0.02 0.02 0.03 0.03 0.03 0.03 0.02 0.02 0.02 0.02 0.02 0.02 0.02 0.01 0.01 0.01 0.00 0.00 0.01 0.00 0.00
0.06 0.05 0.05 0.05 0.05 0.05 0.04 0.03 0.03 0.04 0.05 0.05 0.05 0.05 0.04 0.03 0.03 0.02 0.02 0.02 0.02 0.02 0.01 0.01 0.01 0.02 0.01 0.01 0.01 0.01 0.01 0.01 0.00 0.00 0.01 0.00 0.00 0.01 0.00 0.00 0.01 0.00 0.00
0.04 0.03 0.03 0.03 0.04 0.04 0.05 0.04 0.04 0.04 0.05 0.04 0.03 0.03 0.02 0.02 0.02 0.02 0.01 0.01 0.01 0.01 0.01 0.01 0.01 0.00 0.00 0.00 0.00 0.00 0.01 0.01 0.01 0.00 0.00 0.00 0.00 0.00 0.00 0.00 0.00 0.00 0.00
0.05 0.05 0.05 0.05 0.05 0.05 0.06 0.05 0.05 0.05 0.05 0.04 0.03 0.02 0.02 0.02 0.02 0.01 0.01 0.02 0.02 0.01 0.01 0.01 0.01 0.00 0.00 0.00 0.00 0.00 0.01 0.01 0.01 0.01 0.01 0.01 0.01 0.01 0.01 0.00 0.00 0.00 0.00
MSLP
1016.67 1016.79 1016.87 1016.95 1017.04 1017.14 1017.26 1017.40 1017.52 1017.63 1017.69 1017.72 1017.72 1017.73 1017.77 1017.87 1018.05 1018.33 1018.70 1019.11 1019.55 1019.98 1020.36 1020.68 1020.94 1021.14 1021.29 1021.43 1021.55 1021.69 1021.84 1022.00 1022.16 1022.33 1022.49 1022.65 1022.80 1022.95 1023.09 1023.22 1023.33 1023.42 1023.49
1016.65 1016.76 1016.84 1016.91 1016.98 1017.07 1017.20 1017.35 1017.51 1017.66 1017.79 1017.88 1017.94 1017.98 1018.03 1018.11 1018.25 1018.45 1018.72 1019.05 1019.41 1019.79 1020.15 1020.48 1020.77 1021.02 1021.23 1021.42 1021.59 1021.76 1021.93 1022.10 1022.27 1022.44 1022.61 1022.79 1022.95 1023.11 1023.26 1023.39 1023.51 1023.60 1023.67
1016.70 1016.82 1016.90 1016.96 1017.03 1017.12 1017.24 1017.41 1017.59 1017.79 1017.97 1018.12 1018.24 1018.32 1018.38 1018.43 1018.51 1018.61 1018.77 1018.98 1019.24 1019.53 1019.84 1020.16 1020.47 1020.76 1021.03 1021.28 1021.51 1021.72 1021.92 1022.12 1022.31 1022.49 1022.67 1022.85 1023.02 1023.19 1023.35 1023.49 1023.62 1023.72 1023.80
1016.81 1016.94 1017.03 1017.09 1017.16 1017.24 1017.36 1017.52 1017.73 1017.95 1018.18 1018.38 1018.55 1018.66 1018.73 1018.76 1018.77 1018.78 1018.82 1018.90 1019.04 1019.23 1019.47 1019.75 1020.06 1020.38 1020.69 1021.00 1021.28 1021.55 1021.79 1022.01 1022.22 1022.42 1022.61 1022.79 1022.97 1023.14 1023.31 1023.47 1023.60 1023.73 1023.83
1016.93 1017.08 1017.18 1017.26 1017.32 1017.40 1017.51 1017.66 1017.86 1018.10 1018.35 1018.59 1018.79 1018.93 1019.01 1019.02 1018.99 1018.92 1018.85 1018.82 1018.83 1018.92 1019.07 1019.30 1019.58 1019.91 1020.25 1020.59 1020.93 1021.24 1021.52 1021.77 1021.99 1022.20 1022.39 1022.58 1022.75 1022.93 1023.10 1023.27 1023.43 1023.58 1023.72
1017.02 1017.19 1017.31 1017.40 1017.47 1017.55 1017.64 1017.78 1017.96 1018.19 1018.44 1018.70 1018.93 1019.09 1019.19 1019.20 1019.13 1019.01 1018.87 1018.73 1018.65 1018.63 1018.70 1018.86 1019.10 1019.41 1019.76 1020.12 1020.48 1020.83 1021.13 1021.41 1021.64 1021.86 1022.04 1022.22 1022.39 1022.56 1022.74 1022.91 1023.09 1023.26 1023.44
1017.07 1017.25 1017.40 1017.51 1017.60 1017.67 1017.75 1017.87 1018.02 1018.23 1018.47 1018.72 1018.96 1019.14 1019.25 1019.27 1019.21 1019.06 1018.88 1018.68 1018.52 1018.43 1018.42 1018.51 1018.70 1018.97 1019.30 1019.66 1020.03 1020.38 1020.70 1020.98 1021.23 1021.43 1021.62 1021.78 1021.94 1022.09 1022.25 1022.43 1022.61 1022.80 1023.00
1017.07 1017.27 1017.44 1017.59 1017.70 1017.78 1017.86 1017.96 1018.08 1018.26 1018.47 1018.70 1018.93 1019.12 1019.25 1019.29 1019.24 1019.11 1018.91 1018.70 1018.50 1018.35 1018.28 1018.31 1018.44 1018.67 1018.96 1019.29 1019.64 1019.98 1020.30 1020.58 1020.81 1021.01 1021.18 1021.32 1021.46 1021.59 1021.73 1021.89 1022.06 1022.26 1022.47
1017.05 1017.26 1017.47 1017.66 1017.80 1017.92 1018.00 1018.09 1018.19 1018.32 1018.49 1018.69 1018.90 1019.08 1019.23 1019.29 1019.27 1019.17 1019.00 1018.79 1018.59 1018.41 1018.31 1018.29 1018.37 1018.54 1018.77 1019.06 1019.38 1019.69 1019.98 1020.25 1020.47 1020.66 1020.81 1020.93 1021.04 1021.15 1021.25 1021.38 1021.52 1021.70 1021.89
1017.03 1017.27 1017.51 1017.75 1017.94 1018.09 1018.20 1018.29 1018.37 1018.46 1018.59 1018.74 1018.92 1019.09 1019.23 1019.32 1019.33 1019.27 1019.14 1018.97 1018.78 1018.60 1018.48 1018.43 1018.46 1018.57 1018.75 1018.98 1019.25 1019.52 1019.79 1020.03 1020.24 1020.41 1020.55 1020.65 1020.74 1020.81 1020.88 1020.96 1021.06 1021.19 1021.35
1017.04 1017.30 1017.59 1017.87 1018.12 1018.32 1018.46 1018.55 1018.62 1018.68 1018.76 1018.87 1019.00 1019.15 1019.28 1019.37 1019.42 1019.39 1019.31 1019.18 1019.02 1018.86 1018.73 1018.65 1018.64 1018.71 1018.83 1019.01 1019.22 1019.45 1019.68 1019.90 1020.09 1020.26 1020.38 1020.48 1020.55 1020.60 1020.63 1020.67 1020.72 1020.78 1020.88
1017.07 1017.35 1017.67 1018.00 1018.30 1018.54 1018.72 1018.83 1018.89 1018.93 1018.98 1019.04 1019.12 1019.23 1019.34 1019.43 1019.49 1019.50 1019.45 1019.35 1019.23 1019.09 1018.97 1018.87 1018.84 1018.85 1018.93 1019.05 1019.22 1019.40 1019.60 1019.80 1019.98 1020.14 1020.27 1020.37 1020.43 1020.47 1020.48 1020.47 1020.47 1020.47 1020.50
1017.10 1017.39 1017.73 1018.09 1018.43 1018.71 1018.91 1019.04 1019.10 1019.13 1019.14 1019.17 1019.21 1019.28 1019.36 1019.44 1019.50 1019.53 1019.50 1019.44 1019.34 1019.22 1019.10 1019.00 1018.94 1018.92 1018.95 1019.03 1019.15 1019.30 1019.47 1019.65 1019.82 1019.99 1020.12 1020.23 1020.31 1020.34 1020.35 1020.32 1020.28 1020.23 1020.20
1017.08 1017.37 1017.72 1018.09 1018.44 1018.73 1018.95 1019.10 1019.17 1019.19 1019.19 1019.19 1019.20 1019.25 1019.31 1019.37 1019.42 1019.45 1019.43 1019.38 1019.29 1019.19 1019.07 1018.97 1018.89 1018.85 1018.84 1018.89 1018.97 1019.09 1019.23 1019.39 1019.55 1019.72 1019.87 1019.99 1020.09 1020.14 1020.15 1020.13 1020.07 1020.00 1019.92
1016.98 1017.25 1017.59 1017.94 1018.28 1018.58 1018.80 1018.95 1019.03 1019.05 1019.05 1019.05 1019.06 1019.09 1019.14 1019.19 1019.24 1019.26 1019.24 1019.19 1019.11 1019.00 1018.88 1018.77 1018.68 1018.62 1018.59 1018.61 1018.66 1018.74 1018.86 1018.99 1019.15 1019.30 1019.45 1019.59 1019.70 1019.78 1019.81 1019.81 1019.76 1019.69 1019.61
1016.78 1017.03 1017.33 1017.65 1017.96 1018.23 1018.45 1018.59 1018.68 1018.73 1018.75 1018.78 1018.81 1018.85 1018.90 1018.96 1019.00 1019.01 1018.99 1018.93 1018.83 1018.72 1018.59 1018.48 1018.37 1018.30 1018.26 1018.24 1018.27 1018.32 1018.39 1018.49 1018.61 1018.74 1018.88 1019.01 1019.13 1019.22 1019.28 1019.31 1019.31 1019.27 1019.20
1016.50 1016.72 1016.98 1017.26 1017.53 1017.76 1017.96 1018.11 1018.22 1018.30 1018.36 1018.43 1018.51 1018.59 1018.67 1018.75 1018.79 1018.80 1018.77 1018.69 1018.59 1018.46 1018.32 1018.19 1018.07 1017.99 1017.93 1017.89 1017.88 1017.90 1017.92 1017.97 1018.03 1018.11 1018.19 1018.29 1018.39 1018.48 1018.56 1018.62 1018.66 1018.67 1018.66
1016.20 1016.40 1016.63 1016.86 1017.09 1017.30 1017.48 1017.63 1017.76 1017.88 1018.01 1018.14 1018.28 1018.43 1018.56 1018.66 1018.73 1018.74 1018.70 1018.60 1018.48 1018.32 1018.17 1018.03 1017.90 1017.80 1017.72 1017.66 1017.62 1017.58 1017.54 1017.51 1017.49 1017.48 1017.48 1017.51 1017.55 1017.62 1017.69 1017.77 1017.85 1017.92 1017.97
1015.96 1016.15 1016.36 1016.57 1016.77 1016.95 1017.13 1017.29 1017.46 1017.63 1017.82 1018.03 1018.25 1018.46 1018.65 1018.80 1018.89 1018.90 1018.85 1018.74 1018.59 1018.41 1018.23 1018.07 1017.92 1017.80 1017.71 1017.62 1017.53 1017.44 1017.33 1017.21 1017.08 1016.95 1016.85 1016.77 1016.72 1016.72 1016.75 1016.82 1016.92 1017.03 1017.13
1015.85 1016.06 1016.27 1016.47 1016.67 1016.85 1017.03 1017.22 1017.42 1017.65 1017.90 1018.19 1018.47 1018.75 1019.00 1019.19 1019.29 1019.31 1019.25 1019.12 1018.94 1018.73 1018.52 1018.32 1018.15 1018.01 1017.89 1017.77 1017.64 1017.48 1017.29 1017.07 1016.83 1016.58 1016.34 1016.13 1015.97 1015.87 1015.83 1015.86 1015.94 1016.06 1016.20
1015.91 1016.17 1016.41 1016.64 1016.85 1017.05 1017.24 1017.46 1017.69 1017.96 1018.27 1018.61 1018.96 1019.29 1019.58 1019.79 1019.91 1019.93 1019.84 1019.68 1019.47 1019.22 1018.97 1018.74 1018.54 1018.37 1018.21 1018.06 1017.88 1017.67 1017.41 1017.09 1016.74 1016.37 1015.99 1015.65 1015.36 1015.14 1015.00 1014.96 1014.99 1015.08 1015.22
1016.16 1016.48 1016.77 1017.05 1017.29 1017.52 1017.75 1017.98 1018.24 1018.55 1018.89 1019.26 1019.63 1019.99 1020.29 1020.51 1020.63 1020.63 1020.52 1020.32 1020.06 1019.77 1019.47 1019.20 1018.96 1018.75 1018.56 1018.37 1018.15 1017.89 1017.57 1017.19 1016.75 1016.27 1015.79 1015.32 1014.91 1014.57 1014.33 1014.18 1014.13 1014.17 1014.26
1016.57 1016.95 1017.31 1017.64 1017.94 1018.20 1018.45 1018.71 1018.98 1019.29 1019.63 1020.00 1020.37 1020.72 1021.00 1021.21 1021.30 1021.27 1021.12 1020.88 1020.58 1020.24 1019.89 1019.57 1019.28 1019.03 1018.80 1018.57 1018.33 1018.03 1017.68 1017.25 1016.76 1016.22 1015.67 1015.11 1014.61 1014.17 1013.82 1013.57 1013.43 1013.38 1013.39
1017.07 1017.53 1017.95 1018.34 1018.68 1018.98 1019.25 1019.51 1019.78 1020.06 1020.37 1020.70 1021.03 1021.33 1021.58 1021.74 1021.79 1021.71 1021.53 1021.25 1020.89 1020.50 1020.11 1019.73 1019.39 1019.10 1018.83 1018.57 1018.30 1018.00 1017.63 1017.20 1016.71 1016.15 1015.57 1014.98 1014.42 1013.91 1013.48 1013.14 1012.90 1012.74 1012.67
1017.60 1018.12 1018.61 1019.05 1019.43 1019.75 1020.02 1020.27 1020.50 1020.74 1020.99 1021.25 1021.50 1021.73 1021.91 1022.01 1022.00 1021.89 1021.66 1021.34 1020.95 1020.51 1020.07 1019.65 1019.26 1018.92 1018.61 1018.33 1018.05 1017.75 1017.40 1017.00 1016.53 1016.01 1015.45 1014.87 1014.30 1013.77 1013.28 1012.87 1012.54 1012.28 1012.09
1018.12 1018.69 1019.22 1019.69 1020.10 1020.43 1020.69 1020.90 1021.08 1021.25 1021.42 1021.58 1021.74 1021.88 1021.98 1022.01 1021.95 1021.79 1021.53 1021.18 1020.76 1020.30 1019.82 1019.36 1018.93 1018.55 1018.21 1017.91 1017.62 1017.32 1017.01 1016.65 1016.25 1015.79 1015.29 1014.76 1014.22 1013.69 1013.18 1012.72 1012.31 1011.96 1011.66
Thickness
5742 5741 5739 5737 5738 5736 5734 5732 5732 5730 5730 5729 5729 5729 5728 5727 5727 5727 5723 5718 5717 5716 5715 5714 5713 5712 5712 5711 5711 5711 5710 5709 5709 5709 5709 5709 5708 5708 5707 5707 5706 5706 5705
5740 5739 5737 5736 5736 5735 5734 5732 5732 5730 5729 5729 5728 5727 5727 5726 5724 5723 5723 5719 5716 5715 5714 5713 5712 5711 5710 5710 5709 5709 5708 5708 5707 5707 5707 5707 5706 5706 5706 5705 5705 5704 5703
5738 5737 5737 5736 5736 5734 5731 5731 5730 5730 5729 5729 5727 5727 5726 5725 5724 5722 5722 5721 5718 5715 5713 5712 5711 5710 5709 5709 5708 5708 5707 5707 5706 5705 5705 5705 5704 5704 5704 5703 5703 5702 5702
5735 5735 5736 5737 5734 5733 5733 5732 5732 5731 5730 5729 5728 5727 5726 5723 5722 5721 5721 5719 5719 5718 5714 5712 5710 5709 5709 5708 5708 5707 5706 5705 5704 5704 5703 5703 5703 5702 5702 5701 5701 5701 5700
5733 5733 5734 5734 5732 5733 5733 5734 5733 5732 5729 5728 5728 5726 5726 5725 5723 5722 5721 5720 5719 5717 5717 5712 5711 5710 5709 5708 5707 5707 5705 5704 5703 5703 5702 5702 5701 5701 5700 5700 5699 5699 5699
5732 5733 5733 5731 5733 5734 5732 5731 5729 5728 5728 5727 5730 5728 5726 5726 5725 5723 5722 5721 5719 5719 5718 5717 5714 5712 5710 5709 5708 5707 5705 5704 5703 5702 5701 5701 5700 5700 5699 5699 5698 5698 5697
5731 5730 5734 5730 5731 5732 5730 5730 5729 5727 5727 5727 5726 5725 5726 5727 5726 5724 5723 5723 5723 5721 5719 5717 5716 5715 5713 5710 5709 5708 5706 5705 5703 5702 5701 5700 5700 5699 5699 5698 5697 5697 5696
5729 5730 5731 5731 5731 5730 5728 5728 5726 5728 5729 5727 5726 5723 5720 5721 5722 5727 5725 5724 5724 5723 5721 5719 5717 5715 5715 5714 5712 5709 5707 5706 5704 5703 5702 5701 5700 5699 5699 5698 5697 5696 5696
5728 5729 5728 5730 5728 5730 5729 5727 5726 5725 5726 5726 5728 5724 5720 5718 5722 5725 5724 5725 5723 5723 5723 5720 5718 5717 5715 5715 5713 5710 5708 5707 5705 5704 5703 5702 5701 5700 5699 5698 5697 5696 5696
5726 5726 5726 5726 5726 5729 5727 5727 5728 5727 5725 5725 5725 5725 5725 5725 5721 5719 5723 5726 5724 5722 5724 5722 5721 5718 5716 5715 5712 5710 5708 5707 5706 5705 5704 5703 5702 5700 5699 5699 5698 5697 5696
5724 5725 5724 5724 5724 5726 5725 5725 5725 5725 5726 5726 5727 5725 5724 5723 5724 5720 5718 5721 5723 5725 5724 5721 5721 5719 5717 5715 5713 5711 5708 5706 5706 5705 5704 5703 5702 5700 5699 5699 5698 5697 5696
5723 5723 5723 5722 5723 5724 5722 5722 5722 5723 5724 5724 5726 5726 5724 5723 5723 5722 5719 5718 5720 5723 5723 5722 5721 5720 5718 5716 5714 5710 5707 5706 5705 5704 5703 5702 5701 5700 5699 5698 5698 5697 5697
5722 5721 5722 5720 5721 5720 5720 5720 5720 5722 5721 5720 5721 5723 5725 5725 5725 5723 5720 5719 5718 5721 5720 5721 5722 5719 5718 5716 5713 5709 5706 5705 5703 5702 5702 5701 5700 5699 5698 5697 5697 5697 5696
5723 5721 5719 5718 5718 5718 5718 5717 5720 5719 5718 5718 5719 5718 5720 5722 5722 5721 5720 5717 5715 5717 5718 5718 5721 5719 5716 5714 5711 5707 5706 5704 5702 5701 5700 5699 5698 5697 5697 5696 5695 5695 5695
5721 5719 5718 5717 5716 5715 5715 5715 5717 5715 5715 5716 5717 5716 5716 5719 5718 5718 5718 5716 5712 5710 5713 5715 5716 5716 5712 5711 5708 5706 5706 5703 5701 5699 5698 5697 5696 5696 5695 5694 5694 5694 5693
5717 5717 5716 5715 5715 5714 5713 5712 5713 5713 5711 5711 5712 5711 5711 5715 5715 5714 5714 5713 5711 5708 5708 5713 5711 5714 5708 5708 5705 5703 5703 5701 5699 5698 5697 5696 5695 5694 5693 5693 5692 5692 5691
5714 5714 5714 5714 5713 5712 5711 5710 5711 5710 5708 5708 5708 5707 5706 5706 5708 5710 5709 5708 5707 5705 5701 5706 5709 5708 5701 5700 5701 5700 5700 5699 5701 5698 5696 5694 5693 5692 5691 5691 5691 5690 5690
5713 5713 5713 5712 5712 5711 5710 5708 5707 5707 5705 5704 5704 5703 5703 5703 5701 5701 5701 5701 5701 5699 5696 5694 5698 5700 5697 5696 5695 5694 5696 5698 5697 5697 5693 5691 5690 5689 5689 5689 5688 5688 5687
5711 5712 5711 5710 5710 5709 5708 5706 5705 5704 5703 5702 5701 5700 5699 5698 5695 5696 5694 5695 5695 5695 5692 5690 5691 5692 5692 5691 5689 5688 5691 5689 5690 5692 5690 5688 5687 5686 5686 5685 5685 5685 5684
5709 5709 5709 5708 5707 5706 5705 5703 5701 5700 5698 5697 5696 5695 5694 5692 5689 5687 5687 5685 5685 5684 5684 5682 5682 5684 5682 5683 5680 5680 5682 5684 5683 5684 5684 5683 5683 5682 5682 5681 5681 5680 5680
5707 5706 5704 5703 5702 5701 5700 5698 5696 5694 5691 5689 5688 5686 5684 5681 5678 5676 5677 5676 5674 5673 5674 5673 5672 5672 5672 5669 5668 5669 5668 5670 5673 5673 5675 5676 5677 5678 5679 5677 5676 5676 5675
5700 5699 5697 5695 5693 5692 5688 5686 5686 5686 5683 5679 5676 5673 5671 5668 5665 5662 5660 5659 5658 5659 5659 5658 5659 5657 5655 5654 5654 5652 5652 5653 5656 5662 5659 5662 5664 5666 5668 5669 5671 5670 5668
5691 5689 5687 5685 5682 5678 5676 5675 5674 5675 5671 5668 5664 5661 5660 5657 5654 5652 5648 5646 5644 5641 5640 5641 5642 5641 5639 5640 5637 5637 5638 5638 5639 5643 5643 5647 5652 5653 5657 5660 5660 5658 5657
5681 5678 5676 5673 5670 5665 5663 5663 5662 5661 5658 5654 5651 5648 5646 5642 5640 5638 5637 5636 5633 5631 5628 5627 5625 5624 5623 5621 5620 5620 5620 5623 5628 5631 5632 5634 5640 5642 5647 5648 5648 5647 5646
5671 5667 5664 5661 5658 5653 5650 5650 5649 5649 5645 5641 5638 5635 5632 5628 5622 5621 5622 5621 5619 5617 5614 5611 5608 5607 5605 5604 5603 5605 5608 5611 5617 5621 5622 5621 5625 5628 5632 5635 5637 5636 5636
5661 5657 5652 5648 5645 5640 5636 5636 5635 5638 5633 5630 5625 5621 5614 5611 5606 5604 5606 5606 5604 5602 5600 5599 5597 5595 5594 5594 5591 5589 5591 5594 5598 5602 5605 5602 5605 5607 5613 5621 5623 5623 5623